Location: Unspecified
(0.0000°N, 0.0000°E)
Time: 10:19:07
(UTC+00:00)

COSMOS 2471 (GLONASS) - Pass Details

Date: 13 December 2022
Orbit: 19085 x 19180 km, 65.9° (Epoch: 04 February)

Event Time Altitude Azimuth Distance (km) Brightness Sun altitude
Rises 04:41:59 0° 340° (NNW) 24,731 ? -16.5°
Reaches altitude 10° 05:05:37 10° 343° (NNW) 23,636 ? -11.1°
Maximum altitude 07:19:34 70° 274° (W) 19,395 ? 19.6°
Drops below altitude 10° 09:54:14 10° 172° (S) 23,576 ? 52.8°
Sets 10:35:55 0° 156° (SSE) 24,676 ? 60.0°
